This demonstration page uses our WeatherBlox Daily Observations layout. Learn more.

38.88101, -77.10428

Hourly Observations for December 22, 2018

Temp ( °F °C ) Dew Point ( °F °C ) Humidity (%) Winds ( mph kmh ) Pressure ( in mb ) Visibility ( mi km ) Precip ( " mm )
12:52 am 00:52 Cloudy with Light Rain 45 7.2 38 3.3 77 77 NW 16 26 29.35 994 10 16.0934 0 0.0254
1:52 am 01:52 Cloudy with Light Rain 45 7.2 37 2.8 74 74 NW 14 22 29.39 995 10 16.0934 0 0.0254
2:52 am 02:52 Cloudy 45 7.2 36 2.2 71 71 NW 13 20 29.41 996 10 16.0934 0 0.0254
3:52 am 03:52 Mostly Cloudy 45 7.2 34 1.1 66 66 WNW 17 28 29.44 997 10 16.0934 0 0
4:52 am 04:52 Mostly Cloudy 46 7.8 34 1.1 63 63 WNW 15 24 29.49 999 10 16.0934 0 0
5:52 am 05:52 Cloudy 47 8.3 34 1.1 61 61 NW 14 22 29.5 999 10 16.0934 0 0
6:52 am 06:52 Mostly Cloudy 48 8.9 33 0.6 56 56 WNW 18 30 29.58 1002 10 16.0934 0 0
7:52 am 07:52 Mostly Cloudy 48 8.9 33 0.6 56 56 WNW 9 15 29.62 1003 10 16.0934 0 0
8:52 am 08:52 Mostly Cloudy 49 9.4 33 0.6 55 55 WNW 17 28 29.67 1005 10 16.0934 0 0
9:52 am 09:52 Partly Cloudy 51 10.6 33 0.6 50 50 WNW 21 33 29.73 1007 10 16.0934 0 0
10:52 am 10:52 Partly Cloudy 52 11.1 32 0 47 47 WNW 13 20 29.76 1008 10 16.0934 0 0
11:52 am 11:52 Partly Cloudy 52 11.1 32 0 47 47 WNW 22 35 29.78 1009 10 16.0934 0 0
12:52 pm 12:52 Partly Cloudy 52 11.1 32 0 47 47 WNW 16 26 29.81 1009 10 16.0934 0 0
1:52 pm 13:52 Mostly Sunny 52 11.1 31 -0.6 45 45 NW 17 28 29.85 1011 10 16.0934 0 0
2:52 pm 14:52 Partly Cloudy 50 10 30 -1.1 46 46 WNW 21 33 29.89 1012 10 16.0934 0 0
3:52 pm 15:52 Partly Cloudy 48 8.9 30 -1.1 50 50 WNW 18 30 29.93 1014 10 16.0934 0 0
4:52 pm 16:52 Mostly Cloudy 47 8.3 30 -1.1 52 52 W 12 19 29.98 1015 10 16.0934 0 0
5:52 pm 17:52 Cloudy 47 8.3 29 -1.7 50 50 VRB 7 11 30 1016 10 16.0934 0 0
6:52 pm 18:52 Partly Cloudy 47 8.3 29 -1.7 50 50 SW 5 7 30.01 1016 10 16.0934 0 0
7:52 pm 19:52 Mostly Clear 45 7.2 29 -1.7 54 54 NW 9 15 30.04 1017 10 16.0934 0 0
8:52 pm 20:52 Partly Cloudy 45 7.2 29 -1.7 54 54 NW 16 26 30.07 1018 10 16.0934 0 0
9:52 pm 21:52 Partly Cloudy 44 6.7 28 -2.2 53 53 WNW 13 20 30.08 1019 10 16.0934 0 0
10:52 pm 22:52 Mostly Clear 43 6.1 28 -2.2 56 56 WNW 10 17 30.11 1020 10 16.0934 0 0
11:52 pm 23:52 Mostly Clear 42 5.6 27 -2.8 55 55 WNW 9 15 30.13 1020 10 16.0934 0 0

Powered by AerisWeather